Location: Unspecified
(0.0000°N, 0.0000°E)
Time: 03:14:16
(UTC+00:00)

Vanguard 2 - Pass Details

Date: 20 December 2018
Orbit: 553 x 2939 km, 32.9° (Epoch: 18 March)

Event Time Altitude Azimuth Distance (km) Brightness Sun altitude
Rises 14:30:03 0° 242° (WSW) 4,633 12.2 46.2°
Reaches altitude 10° 14:33:50 10° 245° (WSW) 3,254 11.7 45.4°
Maximum altitude 14:41:09 55° 322° (NW) 1,033 8.8 43.9°
Drops below altitude 10° 14:45:50 10° 40° (NE) 2,110 9.5 42.9°
Sets 14:47:51 0° 45° (NE) 2,886 10.1 42.5°
